Погода в Красном Поле

Россия / Челябинская область     55°14′06″N   61°14′37″E
темп.,
°C
ветер,
м/с
пор.,
м/с
влажн.,
%
обл.,
%
осадки,
мм/ч
давл.,
гПа
погр.,
м
17 июня, чт
чт1723:00+20юз51160100 0.3 1012278
02:00+20зюз51364100 0.0 1012409
05:00+19ююз2560100 0.0 101094
08:00+23юз41153100 0.1 1008417
11:00+27юз464256 0.1 1006801
14:00+29з353899 0.0 10051546
17:00+20св4489100 11.3 1004147
20:00+17сз499092 6.3 1005276
18 июня, пт
пт1823:00+15сз614812 6.4 1007609
02:00+14ссз6146486 0.0 1008613
05:00+14ссз6115382 0.0 1010762
08:00+14ссз711550 0.0 1013832
11:00+17с710435 0.0 10141737
14:00+18ссв7941100 0.0 10152410
17:00+18с7113876 0.0 10172460
20:00+16с254624 0.0 1018714
19 июня, сб
сб1923:00+13ссз365151 0.0 1019170
02:00+11сз495761 0.0 1020223
05:00+10зсз4116047 0.0 1020300
08:00+14сз61149100 0.0 1020685
11:00+14з41158100 0.0 1019953
14:00+12зсз6138794 0.7 1018806
17:00+16сз71171100 0.8 10171007
20:00+15зсз51477100 0.0 1015678
20 июня, вс
вс2023:00+14з41096100 1.4 1014408
02:00+14з41194100 0.5 1012399
05:00+15зюз3997100 1.1 1010334
08:00+18зсз61290100 0.8 1009937
11:00+18сз6138994 1.3 10091130
14:00+25сз8154517 0.1 10072301
17:00+23сз91541100 0.1 10092276
20:00+18ссз9154038 0.0 10121623
21 июня, пн
пн2123:00+14сз713445 0.0 10141033
02:00+12ссз613490 0.0 10161032
05:00+10ссз612624 0.0 1018762
08:00+12ссз69610 0.0 1020938
11:00+16ссз69435 0.0 10191640
14:00+20ссз583239 0.0 10182245
17:00+21сз693217 0.0 10172296
20:00+16ссз5114499 0.0 1017576